Weather History for Riverside March, CA

Change the Weather History Date:

Thursday, June 13, 2013

  Actual Average Record
Temperature  
Mean Temperature 71 °F -  
Max Temperature 86 °F 82 °F 97 °F (2007)
Min Temperature 56 °F 55 °F 50 °F (1998)
Cooling Degree Days 6    
Growing Degree Days 21 (Base 50)    
Moisture  
Dew Point 60 °F    
Average Humidity 86    
Maximum Humidity 100    
Minimum Humidity 42    
Precipitation  
Precipitation 0.00 in - - ()
Sea Level Pressure  
Sea Level Pressure 29.96 in    
Wind  
Wind Speed 4 mph (WNW)    
Max Wind Speed 15 mph    
Max Gust Speed -    
Visibility 6 miles    
Events      
Averages and records for this station are not official NWS values.
T = Trace of Precipitation, MM = Missing Value Source: NWS Daily Summary

Daily Weather History Graph

Daily Weather History Graph

Search for Another Location

Airport:

Trip Planner

Search our weather history database for the weather conditions in past years. The results will help you decide how hot, cold, wet, or windy it might be!

Date:

Astronomy

Jun. 13, 2013 Rise Set
Actual Time 5:37 AM PDT 8:00 PM PDT
Civil Twilight 5:08 AM PDT 8:30 PM PDT
Nautical Twilight 4:32 AM PDT 9:05 PM PDT
Astronomical Twilight 3:53 AM PDT 9:45 PM PDT
Moon 10:07 AM PDT (6/13) 11:22 PM PDT (6/13)
Length of Visible Light 15h 21m
Length of Day
14h 23m
Waxing Crescent, 22% of the Moon is Illuminated
Jun 13
Waxing Crescent
Jun 16
First Quarter
Jun 23
Full
Jun 29
Last Quarter
Jul 8
New

Hourly Weather History & Observations

Time (PDT) Temp. Heat Index Dew Point Humidity Pressure Visibility Wind Dir Wind Speed Gust Speed Precip Events Conditions
12:58 AM 57.9 °F - 57.9 °F 100% 29.97 in 7.0 mi NW 5.8 mph - N/A   Clear
1:00 AM 57.2 °F - 57.2 °F 100% 30.00 in 7.0 mi NW 5.8 mph - N/A   Partly Cloudy
1:10 AM 57.2 °F - 57.2 °F 100% 30.00 in 7.0 mi WNW 4.6 mph - N/A   Mostly Cloudy
1:13 AM 57.2 °F - 57.2 °F 100% 29.99 in 7.0 mi WNW 3.5 mph - N/A   Scattered Clouds
1:42 AM 57.2 °F - 57.2 °F 100% 29.98 in 6.0 mi West 3.5 mph - N/A   Mostly Cloudy
1:58 AM 56.8 °F - 56.8 °F 100% 29.96 in 6.0 mi WNW 3.5 mph - N/A   Mostly Cloudy
2:38 AM 57.2 °F - 57.2 °F 100% 29.98 in 5.0 mi WNW 4.6 mph - N/A   Mostly Cloudy
2:58 AM 57.6 °F - 57.6 °F 100% 29.95 in 5.0 mi West 3.5 mph - N/A   Mostly Cloudy
3:58 AM 57.7 °F - 57.7 °F 100% 29.95 in 4.0 mi West 3.5 mph - N/A   Overcast
4:58 AM 58.1 °F - 58.1 °F 100% 29.96 in 4.0 mi Variable 1.2 mph - N/A   Overcast
5:40 AM 59.0 °F - 59.0 °F 100% 30.00 in 2.0 mi Calm Calm - N/A   Overcast
5:46 AM 59.0 °F - 59.0 °F 100% 30.00 in 1.5 mi Calm Calm - N/A   Overcast
5:51 AM 59.0 °F - 59.0 °F 100% 30.00 in 1.5 mi Calm Calm - N/A   Overcast
5:58 AM 58.5 °F - 58.5 °F 100% 29.97 in 1.2 mi NW 1.2 mph - N/A   Overcast
6:58 AM 59.2 °F - 59.2 °F 100% 29.97 in 1.2 mi NE 1.2 mph - N/A   Overcast
7:33 AM 59.0 °F - 59.0 °F 100% 30.00 in 2.0 mi Variable 1.2 mph - N/A   Overcast
7:49 AM 59.0 °F - 59.0 °F 100% 30.00 in 2.0 mi ENE 1.2 mph - N/A   Overcast
7:58 AM 59.7 °F - 59.7 °F 100% 29.99 in 2.0 mi SSW 1.2 mph - N/A   Overcast
8:10 AM 60.8 °F - 60.8 °F 100% 30.02 in 2.0 mi SE 2.3 mph - N/A   Overcast
8:36 AM 60.8 °F - 60.8 °F 100% 30.02 in 3.0 mi Variable 2.3 mph - N/A   Mostly Cloudy
8:43 AM 62.6 °F - 62.6 °F 100% 30.02 in 4.0 mi Variable 3.5 mph - N/A   Mostly Cloudy
8:53 AM 62.6 °F - 62.6 °F 100% 30.02 in 4.0 mi Variable 2.3 mph - N/A   Scattered Clouds
8:58 AM 62.6 °F - 62.6 °F 100% 30.00 in 5.0 mi Variable 1.2 mph - N/A   Scattered Clouds
9:58 AM 68.9 °F - 64.0 °F 84% 29.99 in 8.0 mi NNE 3.5 mph - N/A   Clear
10:58 AM 77.4 °F - 66.9 °F 70% 29.98 in 10.0 mi Variable 2.3 mph - N/A   Clear
11:58 AM 78.8 °F - 66.0 °F 65% 29.97 in 10.0 mi WNW 6.9 mph - N/A   Clear
12:58 PM 81.3 °F 83.5 °F 66.0 °F 60% 29.96 in 10.0 mi NW 9.2 mph - N/A   Scattered Clouds
2:58 PM 85.6 °F 86.8 °F 64.0 °F 48% 29.92 in 10.0 mi WNW 12.7 mph - N/A   Clear
3:58 PM 86.2 °F 86.8 °F 62.4 °F 45% 29.91 in 10.0 mi WNW 12.7 mph - N/A   Clear
4:58 PM 85.8 °F 86.1 °F 61.5 °F 44% 29.88 in 10.0 mi WNW 12.7 mph - N/A   Clear
5:58 PM 84.0 °F 83.6 °F 58.6 °F 42% 29.87 in 10.0 mi WNW 15.0 mph - N/A   Clear
6:58 PM 80.1 °F 80.6 °F 58.3 °F 47% 29.88 in 10.0 mi WNW 10.4 mph - N/A   Clear
7:58 PM 74.7 °F - 57.4 °F 55% 29.89 in 10.0 mi West 10.4 mph - N/A   Clear
8:58 PM 69.3 °F - 57.0 °F 65% 29.90 in 10.0 mi WNW 9.2 mph - N/A   Clear
9:58 PM 65.7 °F - 57.2 °F 74% 29.91 in 10.0 mi West 3.5 mph - N/A   Clear
10:58 PM 63.0 °F - 57.0 °F 81% 29.92 in 10.0 mi West 3.5 mph - N/A   Clear
11:58 PM 60.1 °F - 55.8 °F 86% 29.91 in 10.0 mi NW 2.3 mph - N/A   Clear